[[{"header":{"parameterUnit":"m.s-1","parameterCategory":2,"la1":30.2992,"la2":30.254,"lo1":-89.0895,"lo2":-89.0443,"dy":0.0025,"dx":0.0025,"nx":19,"ny":19,"refTime":"2026-03-10T09:00:00:Z","depth":"0","parameterNumber":2,"parameterNumberName":"U-component_of_CURRENTS"},"data":[0,0,0,0.2282,0.2282,0.231,0.231,0.2375,0.2376,0,0,0,0,0,0,0,0,0,0,0,0.2268,0.2268,0.2282,0.2282,0.231,0.231,0.2375,0.2376,0,0,0,0,0,0,0,0,0,0,0,0.2268,0.2268,0.2268,0.2283,0.231,0.231,0.2375,0.2347,0,0,0,0,0,0,0,0,0,0,0.2316,0.231,0.2268,0.2268,0.2283,0.231,0.231,0.2345,0.2348,0.2371,0,0.2371,0,0.2378,0.2381,0.2381,0,0,0,0.2283,0.2307,0.2304,0.2268,0.2283,0.231,0.2298,0.2347,0.2351,0.2375,0.2372,0.2374,0.2379,0.2381,0.2381,0.2481,0.2482,0,0,0.2282,0.2286,0.2301,0.2306,0.2286,0.2297,0.2299,0.2349,0.2358,0.2372,0.2376,0.238,0.2382,0.2382,0.2481,0.2481,0,0,0,0.2277,0.2285,0.228,0.2304,0.2308,0.2298,0.23,0.2356,0.2351,0.2376,0.2381,0.2382,0.2383,0.248,0.2481,0.2466,0,0,0,0.2276,0.2282,0.2279,0.2284,0.2307,0.2332,0.2306,0.2348,0.2354,0.238,0.2382,0.2384,0.248,0.2481,0.2465,0.2431,0,0,0,0.2267,0.2282,0.228,0.2284,0.2295,0.2331,0.2329,0.2349,0.2357,0.2381,0.2384,0.2479,0.248,0.2465,0.2431,0.243,0,0,0,0.2276,0.2293,0.228,0.2309,0.2294,0.2339,0.2329,0.2373,0.2398,0.2382,0.248,0.2481,0.2464,0.2431,0.243,0.2438,0.2439,0,0,0.2303,0.2296,0.2314,0.2304,0.234,0.2335,0.2379,0.2404,0.2424,0.2464,0.2466,0.2466,0.2431,0.243,0.2513,0.2511,0,0,0,0.2328,0.2331,0.2346,0.236,0.2385,0.2387,0.2419,0.2431,0.2464,0.2444,0.2496,0.2475,0.2474,0.2481,0.248,0.2335,0.2487,0.2487,0.2487,0.2351,0.2358,0.2377,0.2384,0.241,0.2436,0.2444,0.2465,0.2494,0.2511,0.2487,0.2505,0.2515,0.2513,0.2365,0.253,0.253,0.253,0.253,0.2361,0.2352,0.2368,0.2383,0.239,0.2418,0.245,0.2465,0.2488,0.2506,0.2507,0.2495,0.2511,0.2353,0.2529,0.2529,0.2529,0.2529,0.2529,0.234,0.2332,0.2342,0.2347,0.2353,0.2382,0.2384,0.2415,0.246,0.2462,0.2484,0.2484,0.2322,0.2475,0.2475,0.2474,0.2474,0.2474,0.2474,0.2297,0.2307,0.2304,0.2307,0.2306,0.2309,0.234,0.2363,0.2415,0.2455,0.2456,0.2316,0.2488,0.2463,0.2472,0.2472,0.2473,0.2473,0.2473,0.2252,0.2265,0.2263,0.2261,0.2253,0.223,0.2271,0.2321,0.2359,0.2386,0.2279,0.2461,0.246,0.2462,0.2438,0.244,0.244,0.244,0.244,0.2222,0.2228,0.2232,0.2225,0.2206,0.2197,0.2182,0.2238,0.2244,0.2217,0.2181,0.2178,0.2186,0.2167,0.2176,0.2146,0.2073,0.2072,0.2071,0.2197,0.2213,0.2205,0.221,0.2186,0.2157,0.2113,0.2106,0.2103,0.2039,0.197,0.1986,0.1965,0.1989,0.1951,0.1975,0.1924,0,0]},{"header":{"parameterUnit":"m.s-1","parameterCategory":2,"la1":30.2992,"la2":30.254,"lo1":-89.0895,"lo2":-89.0443,"dy":0.0025,"dx":0.0025,"nx":19,"ny":19,"refTime":"2026-03-10T09:00:00:Z","depth":"0","parameterNumber":3,"parameterNumberName":"V-component_of_CURRENTS"},"data":[0,0,0,0.0164,0.0166,0.0274,0.0275,0.0408,0.041,0,0,0,0,0,0,0,0,0,0,0,0.0117,0.0117,0.0164,0.0167,0.0274,0.0275,0.0408,0.041,0,0,0,0,0,0,0,0,0,0,0,0.0117,0.0117,0.0118,0.0167,0.0274,0.0275,0.0408,0.0329,0,0,0,0,0,0,0,0,0,0,0.0225,0.0169,0.0117,0.0118,0.0168,0.0274,0.0275,0.0325,0.0334,0.0357,0,0.0365,0,0.0394,0.0418,0.0419,0,0,0,0.0171,0.0161,0.0203,0.0118,0.0169,0.0274,0.0227,0.033,0.034,0.0369,0.0367,0.0373,0.0396,0.0419,0.042,0.0513,0.0513,0,0,0.0165,0.0128,0.0196,0.0209,0.0186,0.0223,0.023,0.0336,0.0334,0.0368,0.0376,0.0398,0.042,0.0421,0.0513,0.0513,0,0,0,0.0145,0.0124,0.0163,0.0203,0.0225,0.0226,0.0234,0.0329,0.0345,0.0378,0.04,0.042,0.0422,0.0513,0.0513,0.0477,0,0,0,0.0142,0.0112,0.016,0.0138,0.0222,0.0276,0.0224,0.0338,0.0351,0.0399,0.0421,0.0423,0.0513,0.0513,0.0478,0.0496,0,0,0,0.0114,0.0109,0.0121,0.0136,0.0184,0.0275,0.0298,0.0341,0.0364,0.0419,0.0424,0.0513,0.0513,0.0479,0.0496,0.06,0,0,0,0.0074,0.0082,0.012,0.014,0.0182,0.0245,0.0297,0.0348,0.0389,0.0421,0.0513,0.0513,0.0479,0.0496,0.0599,0.0708,0.0724,0,0,0.0065,0.008,0.0096,0.0133,0.0174,0.0231,0.0277,0.0354,0.0402,0.0479,0.0481,0.0478,0.0496,0.06,0.0718,0.0734,0,0,0,0.0082,0.0091,0.011,0.0144,0.0197,0.025,0.0316,0.0358,0.0432,0.0428,0.0492,0.0506,0.0573,0.0634,0.0647,0.0637,0.0514,0.0514,0.0514,0.0017,0.0065,0.0091,0.015,0.0185,0.0265,0.0322,0.0394,0.0419,0.0446,0.0484,0.0553,0.0614,0.0626,0.0612,0.0478,0.0477,0.0477,0.0477,0.0015,0.0048,0.0089,0.0134,0.0189,0.0234,0.0342,0.0378,0.05,0.0476,0.0543,0.0602,0.0638,0.0618,0.0475,0.0476,0.0476,0.0476,0.0476,-0.0009,0.0018,0.0045,0.0116,0.0172,0.0245,0.0373,0.0427,0.05,0.055,0.0701,0.0703,0.0688,0.0603,0.0604,0.0605,0.0605,0.0605,0.0606,-0.003,0.0002,0.0054,0.0118,0.0175,0.0272,0.0412,0.0521,0.0668,0.0714,0.0716,0.0718,0.0594,0.0592,0.0614,0.0612,0.0611,0.061,0.061,-0.0,0.0007,0.0087,0.0146,0.0292,0.0445,0.0537,0.0775,0.0877,0.0977,0.0916,0.0831,0.0883,0.0874,0.088,0.0976,0.0976,0.0976,0.0976,0.0021,0.0029,0.0153,0.0264,0.0409,0.0542,0.0827,0.0999,0.1093,0.1121,0.1056,0.1004,0.0989,0.1043,0.1029,0.1037,0.117,0.117,0.117,0.0071,0.0094,0.0198,0.03,0.0473,0.0682,0.0964,0.1195,0.1262,0.117,0.1019,0.1011,0.0918,0.0897,0.0963,0.0946,0.0952,0,0]}],[{"header":{"parameterUnit":"m.s-1","parameterCategory":2,"la1":30.2992,"la2":30.254,"lo1":-89.0895,"lo2":-89.0443,"dy":0.0025,"dx":0.0025,"nx":19,"ny":19,"refTime":"2026-03-10T09:00:00:Z","depth":"2","parameterNumber":2,"parameterNumberName":"U-component_of_CURRENTS"},"data":[0,0,0,0.1052,0.1053,0.1113,0.1114,0.1239,0.124,0,0,0,0,0,0,0,0,0,0,0,0.1047,0.1048,0.1052,0.1053,0.1113,0.1114,0.1239,0.124,0,0,0,0,0,0,0,0,0,0,0,0.1047,0.1048,0.1049,0.1053,0.1113,0.1114,0.1238,0.1182,0,0,0,0,0,0,0,0,0,0,0.1118,0.1104,0.1048,0.1049,0.1053,0.1113,0.1114,0.1179,0.1186,0.1223,0,0.1243,0,0.1237,0.1249,0.1249,0,0,0,0.1059,0.1098,0.1113,0.1049,0.1054,0.1113,0.1088,0.1183,0.119,0.1233,0.1244,0.1248,0.1239,0.125,0.1251,0.1391,0.1391,0,0,0.1056,0.106,0.1107,0.1118,0.1085,0.1086,0.1089,0.1187,0.1203,0.1245,0.1251,0.1241,0.1251,0.1252,0.139,0.1391,0,0,0,0.1042,0.1057,0.1069,0.1114,0.1117,0.1087,0.1092,0.1199,0.1203,0.1252,0.1242,0.1252,0.1253,0.139,0.1391,0.1407,0,0,0,0.104,0.1049,0.1068,0.1071,0.1115,0.1151,0.1102,0.1197,0.1207,0.1242,0.1252,0.1254,0.1389,0.139,0.1405,0.1403,0,0,0,0.1042,0.1048,0.1059,0.1071,0.1092,0.1149,0.1158,0.1198,0.1201,0.125,0.1255,0.1389,0.139,0.1404,0.1401,0.1453,0,0,0,0.1037,0.1064,0.106,0.1097,0.1091,0.1152,0.1157,0.1213,0.1257,0.1252,0.1389,0.1391,0.1403,0.14,0.1451,0.1403,0.1407,0,0,0.1064,0.1068,0.1089,0.1086,0.1125,0.1143,0.1204,0.126,0.1288,0.1361,0.1364,0.1406,0.1401,0.1452,0.1476,0.1479,0,0,0,0.1092,0.1104,0.112,0.1143,0.1182,0.1214,0.1263,0.1296,0.1366,0.1318,0.1427,0.1424,0.1456,0.1424,0.1426,0.1397,0.1397,0.1396,0.1396,0.1107,0.1122,0.1154,0.1178,0.1221,0.1276,0.1321,0.1377,0.1403,0.1438,0.1454,0.1524,0.149,0.1491,0.1477,0.1477,0.1478,0.1478,0.1478,0.1121,0.1132,0.1165,0.1204,0.1246,0.1307,0.1385,0.1412,0.1502,0.1492,0.1524,0.1462,0.1494,0.1479,0.1479,0.1479,0.1479,0.1479,0.1478,0.1113,0.1118,0.1155,0.1203,0.1263,0.1324,0.1395,0.1454,0.1518,0.1553,0.1548,0.1547,0.153,0.1586,0.1587,0.1587,0.1587,0.1587,0.1587,0.1082,0.1113,0.1147,0.1201,0.1243,0.131,0.1412,0.1474,0.1545,0.1565,0.1565,0.1561,0.1557,0.1538,0.1591,0.159,0.159,0.1589,0.1589,0.1068,0.1088,0.1132,0.1174,0.1245,0.1271,0.1385,0.1491,0.1562,0.1594,0.158,0.1579,0.1573,0.157,0.1552,0.1606,0.1606,0.1606,0.1606,0.1055,0.1065,0.1133,0.1179,0.1218,0.1255,0.13,0.1324,0.1412,0.138,0.1389,0.1328,0.1333,0.131,0.1313,0.1287,0.1272,0.1271,0.1271,0.1053,0.1079,0.113,0.1174,0.1207,0.1218,0.1204,0.1079,0.1048,0.1251,0.1264,0.1596,0.1529,0.1529,0.1511,0.1509,0.1476,0,0]},{"header":{"parameterUnit":"m.s-1","parameterCategory":2,"la1":30.2992,"la2":30.254,"lo1":-89.0895,"lo2":-89.0443,"dy":0.0025,"dx":0.0025,"nx":19,"ny":19,"refTime":"2026-03-10T09:00:00:Z","depth":"2","parameterNumber":3,"parameterNumberName":"V-component_of_CURRENTS"},"data":[0,0,0,-0.0132,-0.0131,-0.0125,-0.0125,-0.0133,-0.0133,0,0,0,0,0,0,0,0,0,0,0,-0.0155,-0.0155,-0.0132,-0.0131,-0.0125,-0.0125,-0.0133,-0.0133,0,0,0,0,0,0,0,0,0,0,0,-0.0155,-0.0155,-0.0156,-0.0131,-0.0125,-0.0125,-0.0133,-0.0138,0,0,0,0,0,0,0,0,0,0,-0.0145,-0.0155,-0.0155,-0.0156,-0.0131,-0.0124,-0.0125,-0.0139,-0.0138,-0.0135,0,-0.0137,0,-0.0118,-0.0132,-0.0132,0,0,0,-0.015,-0.0156,-0.0149,-0.0156,-0.0131,-0.0124,-0.0133,-0.0138,-0.0138,-0.0135,-0.0137,-0.0137,-0.0118,-0.0132,-0.0132,-0.0058,-0.0057,0,0,-0.015,-0.0158,-0.0149,-0.0148,-0.0132,-0.0133,-0.0132,-0.0138,-0.0142,-0.0137,-0.0136,-0.0118,-0.0132,-0.0132,-0.0058,-0.0058,0,0,0,-0.0139,-0.0159,-0.0152,-0.0149,-0.0136,-0.0132,-0.0132,-0.0142,-0.0139,-0.0136,-0.0118,-0.0132,-0.0132,-0.0059,-0.0058,-0.0011,0,0,0,-0.014,-0.015,-0.0152,-0.0158,-0.0136,-0.0134,-0.0136,-0.0139,-0.0138,-0.0118,-0.0132,-0.0132,-0.006,-0.0059,-0.0014,-0.0002,0,0,0,-0.0155,-0.0151,-0.0151,-0.0158,-0.0144,-0.0134,-0.0132,-0.0139,-0.0126,-0.0132,-0.0132,-0.0061,-0.0059,-0.0017,-0.0006,0.0045,0,0,0,-0.0163,-0.014,-0.0152,-0.0117,-0.0144,-0.0097,-0.0132,-0.0118,-0.012,-0.0132,-0.006,-0.0058,-0.0017,-0.0009,0.0042,0.0187,0.0212,0,0,-0.0129,-0.0136,-0.0112,-0.0121,-0.0062,-0.01,-0.0035,-0.0065,-0.009,-0.0065,-0.0063,-0.0013,-0.0006,0.0045,0.0287,0.0309,0,0,0,-0.0096,-0.0081,-0.0065,-0.0038,-0.0019,0.0002,-0.0013,-0.0007,-0.0002,-0.0078,0.001,0.0013,0.0043,0.0125,0.0143,-0.005,-0.005,-0.005,-0.005,-0.0065,-0.0043,0.0004,0.0033,0.0054,0.0075,0.0096,0.0102,0.0062,0.008,0.0068,0.0161,0.0251,0.0265,0.0092,0.0092,0.0092,0.0093,0.0093,0.0004,0.0032,0.0053,0.0097,0.0113,0.0142,0.0189,0.0174,0.0215,0.0159,0.0186,0.0192,0.0288,0.0097,0.0096,0.0096,0.0095,0.0095,0.0095,0.002,0.0038,0.0054,0.0112,0.0139,0.0159,0.0222,0.0223,0.0243,0.0271,0.0346,0.0347,0.0178,0.0269,0.0269,0.027,0.027,0.027,0.027,0.002,0.005,0.0085,0.0128,0.0146,0.0173,0.0218,0.0284,0.0383,0.0414,0.0415,0.022,0.0214,0.019,0.0275,0.0274,0.0274,0.0273,0.0273,0.0049,0.005,0.0114,0.0141,0.0213,0.0343,0.0343,0.0543,0.0584,0.0699,0.052,0.0513,0.0511,0.0499,0.0482,0.0637,0.0637,0.0637,0.0637,0.0056,0.0069,0.0146,0.021,0.0308,0.0423,0.0699,0.0808,0.0832,0.0755,0.0748,0.0736,0.0721,0.0728,0.0709,0.0694,0.0905,0.0905,0.0905,0.0083,0.0104,0.0154,0.0225,0.035,0.0575,0.0893,0.1003,0.0888,0.0906,0.0689,0.0676,0.0642,0.0624,0.0617,0.0594,0.0563,0,0]}],[{"header":{"parameterUnit":"m.s-1","parameterCategory":2,"la1":30.2992,"la2":30.254,"lo1":-89.0895,"lo2":-89.0443,"dy":0.0025,"dx":0.0025,"nx":19,"ny":19,"refTime":"2026-03-10T09:00:00:Z","depth":"4","parameterNumber":2,"parameterNumberName":"U-component_of_CURRENTS"},"data":[0,0,0,0.006,0.0062,0.0167,0.0167,0.0289,0.029,0,0,0,0,0,0,0,0,0,0,0,0.0022,0.0023,0.006,0.0063,0.0166,0.0167,0.0289,0.029,0,0,0,0,0,0,0,0,0,0,0,0.0022,0.0023,0.0024,0.0063,0.0166,0.0167,0.0288,0.0214,0,0,0,0,0,0,0,0,0,0,0.0115,0.0078,0.0023,0.0024,0.0063,0.0166,0.0167,0.0211,0.0219,0.0237,0,0.025,0,0.0272,0.0297,0.0297,0,0,0,0.0068,0.0072,0.01,0.0024,0.0064,0.0166,0.0121,0.0215,0.0224,0.0247,0.0252,0.0257,0.0274,0.0298,0.0298,0.0403,0.0404,0,0,0.0062,0.0043,0.0094,0.0106,0.0089,0.0118,0.0124,0.0221,0.0228,0.0253,0.026,0.0276,0.0299,0.0299,0.0403,0.0403,0,0,0,0.0042,0.0039,0.0066,0.0101,0.012,0.0121,0.0128,0.0224,0.0233,0.0262,0.0277,0.0299,0.0301,0.0403,0.0403,0.0418,0,0,0,0.0039,0.0027,0.0063,0.0052,0.0118,0.0175,0.0129,0.0227,0.0238,0.0277,0.0299,0.0302,0.0402,0.0403,0.0417,0.0425,0,0,0,0.0018,0.0025,0.0036,0.0051,0.0094,0.0174,0.0189,0.023,0.0248,0.0298,0.0302,0.0402,0.0403,0.0416,0.0423,0.0473,0,0,0,-0.0004,0.0007,0.0035,0.0057,0.0093,0.015,0.0189,0.0248,0.0291,0.03,0.0402,0.0403,0.0416,0.0422,0.0471,0.0371,0,0,0,-0.0005,0.0007,0.002,0.0047,0.0086,0.0136,0.0189,0.0267,0.0308,0.037,0.0373,0.0418,0.0423,0.0473,0.0417,0,0,0,0,0.001,0.0019,0.0037,0.0069,0.0114,0.0186,0.0245,0.0283,0.0372,0.0337,0.0429,0.0432,0.0463,0.04,0.0407,0.0407,0.0407,0.0406,0.0406,-0.0012,0.0015,0.0042,0.009,0.0132,0.0219,0.0282,0.035,0.0372,0.0422,0.0453,0.0512,0.0444,0.0462,0.0462,0.0462,0.0462,0.0462,0.0462,-0.0003,0.0021,0.0056,0.0096,0.0167,0.0224,0.0337,0.0383,0.048,0.0478,0.0508,0.0429,0.0464,0.0464,0.0464,0.0463,0.0463,0.0463,0.0463,-0.0009,0.0008,0.0035,0.0097,0.0169,0.0256,0.0345,0.0436,0.0507,0.0547,0.0507,0.0537,0.0528,0.0575,0.0575,0.0575,0.0575,0.0575,0.0576,-0.0015,0.001,0.0041,0.0108,0.0152,0.0241,0.0376,0.0437,0.0526,0.0523,0.0566,0.055,0.0546,0.0536,0.058,0.0579,0.0578,0.0578,0.0578,-0.001,-0.0,0.0036,0.0073,0.0168,0.0216,0.0342,0.0433,0.0502,0.0525,0.0518,0.052,0.0512,0.051,0.0497,0.0532,0.053,0.0529,0,-0.0014,-0.0003,0.003,0.007,0.0129,0.0202,0.0269,0.0344,0.043,0.0411,0.0493,0.048,0.0482,0.0467,0.0464,0.0445,0,0,0,-0.0011,-0.0006,0.0006,0.0042,0.01,0.0191,0.028,0.0294,0.0422,0.0442,0.0502,0.0509,0.0514,0.0591,0.0585,0.0581,0.0564,0,0]},{"header":{"parameterUnit":"m.s-1","parameterCategory":2,"la1":30.2992,"la2":30.254,"lo1":-89.0895,"lo2":-89.0443,"dy":0.0025,"dx":0.0025,"nx":19,"ny":19,"refTime":"2026-03-10T09:00:00:Z","depth":"4","parameterNumber":3,"parameterNumberName":"V-component_of_CURRENTS"},"data":[0,0,0,0.03,0.03,0.0288,0.0288,0.0229,0.0228,0,0,0,0,0,0,0,0,0,0,0,0.0303,0.0303,0.03,0.03,0.0288,0.0288,0.0229,0.0228,0,0,0,0,0,0,0,0,0,0,0,0.0303,0.0303,0.0303,0.03,0.0288,0.0288,0.0229,0.0247,0,0,0,0,0,0,0,0,0,0,0.0264,0.0282,0.0303,0.0303,0.03,0.0288,0.0288,0.0248,0.0246,0.0225,0,0.0229,0,0.023,0.0224,0.0224,0,0,0,0.0292,0.0284,0.0276,0.0303,0.03,0.0288,0.0291,0.0247,0.0245,0.0221,0.0228,0.0226,0.0229,0.0224,0.0224,0.0222,0.0223,0,0,0.0293,0.0302,0.0278,0.0275,0.0304,0.0292,0.0291,0.0246,0.0248,0.0228,0.0225,0.0229,0.0223,0.0223,0.0222,0.0223,0,0,0,0.03,0.0303,0.0297,0.0277,0.028,0.0292,0.0291,0.025,0.0247,0.0225,0.0228,0.0223,0.0222,0.0221,0.0222,0.0284,0,0,0,0.03,0.0307,0.0297,0.0303,0.0281,0.0272,0.0295,0.025,0.0245,0.0228,0.0223,0.0222,0.0221,0.0222,0.0281,0.0298,0,0,0,0.0303,0.0308,0.0308,0.0303,0.0301,0.0273,0.0268,0.0249,0.0247,0.0224,0.0222,0.0221,0.0222,0.0279,0.0294,0.0295,0,0,0,0.031,0.0321,0.0308,0.0326,0.0302,0.0316,0.0268,0.0273,0.0261,0.0223,0.0221,0.0222,0.0278,0.0291,0.0293,0.0274,0,0,0,0.0328,0.0324,0.0336,0.0324,0.0345,0.0316,0.0339,0.0301,0.0267,0.023,0.023,0.0282,0.0293,0.0295,0.0338,0,0,0,0,0.0345,0.0353,0.0359,0.0368,0.0369,0.0376,0.0347,0.033,0.0309,0.0266,0.0287,0.0292,0.029,0.0274,0.0227,0.0227,0.0227,0.0227,0.0227,0.0375,0.0377,0.0401,0.0408,0.042,0.0414,0.0413,0.0384,0.035,0.0356,0.0346,0.0394,0.0382,0.0355,0.0356,0.0356,0.0356,0.0356,0.0357,0.0408,0.0422,0.0432,0.0459,0.0467,0.0489,0.047,0.0453,0.0431,0.0404,0.0399,0.0347,0.0363,0.0362,0.0361,0.036,0.0359,0.0359,0.0359,0.0426,0.0433,0.0455,0.0491,0.053,0.0541,0.0553,0.0532,0.0484,0.0486,0.0441,0.0424,0.0412,0.048,0.048,0.0481,0.0481,0.0481,0.0481,0.0434,0.0452,0.0486,0.053,0.0568,0.0606,0.0606,0.0582,0.054,0.05,0.0496,0.0435,0.0431,0.0418,0.0482,0.0482,0.0482,0.0482,0.0482,0.0443,0.0458,0.0503,0.0542,0.0623,0.0637,0.0655,0.0598,0.0569,0.0519,0.0496,0.0495,0.046,0.0455,0.0441,0.0515,0.0515,0.0515,0,0.0443,0.0456,0.0515,0.0576,0.0625,0.0654,0.0626,0.0595,0.0529,0.0529,0.0534,0.0509,0.0507,0.0468,0.0464,0.0448,0,0,0,0.0438,0.0459,0.0498,0.0571,0.0626,0.0616,0.0613,0.0581,0.0572,0.0519,0.0515,0.0515,0.0493,0.0487,0.0431,0.0426,0.0401,0,0]}]]